| time (UTC) | temp C | wind direction | speed KPH | gust KPH | rain 1hr cm | rain 24hr cm | rain mn cm | humidity % | barometer mb |
| 20260505011552 | 11 | 250 | 14.5 | 29.0 | 0.00 | 0.18 | 0.13 | 66 | 1008.1 |
| 20260505010057 | 11 | 237 | 12.9 | 24.1 | 0.00 | 0.18 | 0.13 | 66 | 1007.9 |
| 20260505004602 | 11 | 231 | 16.1 | 30.6 | 0.00 | 0.46 | 0.13 | 65 | 1007.5 |
| 20260505003057 | 11 | 236 | 12.9 | 27.4 | 0.00 | 0.46 | 0.13 | 65 | 1007.5 |
| 20260505001555 | 11 | 213 | 16.1 | 25.7 | 0.00 | 0.46 | 0.13 | 64 | 1007.3 |
| 20260505000107 | 12 | 225 | 11.3 | 27.4 | 0.00 | 0.46 | 0.13 | 64 | 1006.9 |
| 20260504234550 | 12 | 258 | 19.3 | 29.0 | 0.00 | 0.61 | 0.13 | 62 | 1006.7 |
| 20260504233100 | 12 | 248 | 16.1 | 29.0 | 0.00 | 0.61 | 0.13 | 61 | 1006.4 |
| 20260504231558 | 12 | 254 | 11.3 | 27.4 | 0.00 | 0.61 | 0.13 | 60 | 1006.4 |
| 20260504230105 | 13 | 221 | 9.7 | 32.2 | 0.00 | 0.61 | 0.13 | 58 | 1006.2 |
| 20260504224552 | 13 | 238 | 11.3 | 30.6 | 0.00 | 0.84 | 0.13 | 57 | 1005.9 |
| 20260504223051 | 13 | 202 | 12.9 | 40.2 | 0.00 | 0.84 | 0.13 | 56 | 1005.9 |
| 20260504221603 | 14 | 227 | 24.1 | 40.2 | 0.00 | 0.84 | 0.13 | 52 | 1005.9 |
| 20260504220103 | 14 | 226 | 19.3 | 38.6 | 0.00 | 0.84 | 0.13 | 52 | 1005.6 |
| 20260504214556 | 14 | 281 | 25.7 | 45.1 | 0.00 | 1.12 | 0.13 | 50 | 1005.9 |
| 20260504213050 | 14 | 261 | 27.4 | 43.5 | 0.00 | 1.12 | 0.13 | 49 | 1006.0 |
| 20260504211550 | 15 | 212 | 24.1 | 43.5 | 0.00 | 1.12 | 0.13 | 50 | 1005.8 |
| 20260504210054 | 15 | 242 | 25.7 | 51.5 | 0.00 | 1.12 | 0.13 | 49 | 1005.6 |
| 20260504204600 | 16 | 223 | 29.0 | 62.8 | 0.00 | 1.52 | 0.13 | 48 | 1005.6 |
| 20260504203101 | 16 | 226 | 32.2 | 57.9 | 0.00 | 1.52 | 0.13 | 49 | 1005.2 |
| 20260504201552 | 16 | 240 | 27.4 | 54.7 | 0.00 | 1.52 | 0.13 | 51 | 1005.0 |
| 20260504200054 | 16 | 273 | 33.8 | 66.0 | 0.00 | 1.52 | 0.13 | 52 | 1004.8 |
| 20260504194553 | 16 | 218 | 20.9 | 45.1 | 0.00 | 2.44 | 0.13 | 51 | 1004.7 |
| 20260504193056 | 16 | 247 | 27.4 | 49.9 | 0.00 | 2.44 | 0.13 | 48 | 1004.6 |
| 20260504191606 | 16 | 250 | 25.7 | 43.5 | 0.00 | 2.44 | 0.13 | 45 | 1004.7 |
| 20260504190112 | 16 | 228 | 25.7 | 49.9 | 0.00 | 2.44 | 0.13 | 44 | 1004.8 |
| 20260504184557 | 15 | 233 | 29.0 | 45.1 | 0.00 | 3.23 | 0.13 | 43 | 1004.4 |
| 20260504183107 | 15 | 216 | 22.5 | 46.7 | 0.00 | 3.23 | 0.13 | 43 | 1004.5 |
| 20260504181600 | 15 | 205 | 20.9 | 43.5 | 0.00 | 3.23 | 0.13 | 39 | 1004.7 |
| 20260504180051 | 15 | 244 | 30.6 | 53.1 | 0.00 | 3.23 | 0.13 | 37 | 1004.6 |
| 20260504174554 | 15 | 213 | 32.2 | 53.1 | 0.00 | 3.94 | 0.13 | 39 | 1004.7 |
| 20260504173050 | 15 | 251 | 30.6 | 62.8 | 0.00 | 3.94 | 0.13 | 42 | 1004.5 |
| 20260504171553 | 15 | 225 | 25.7 | 56.3 | 0.00 | 3.94 | 0.13 | 39 | 1004.6 |
| 20260504081551 | 5 | 275 | 20.9 | 35.4 | 0.00 | 5.13 | 0.13 | 87 | 999.1 |
| 20260504050106 | 3 | 244 | 27.4 | 41.8 | 0.05 | 5.08 | 0.08 | 88 | 996.3 |
| 20260504044600 | 2 | 259 | 20.9 | 38.6 | 0.08 | 5.08 | 0.08 | 89 | 995.9 |
| 20260504043055 | 2 | 279 | 22.5 | 43.5 | 0.05 | 5.05 | 0.05 | 88 | 995.9 |
| 20260504041601 | 2 | 250 | 24.1 | 41.8 | 0.03 | 5.03 | 0.03 | 88 | 995.4 |
| 20260504040057 | 2 | 263 | 24.1 | 49.9 | 0.00 | 5.00 | 0.00 | 88 | 995.3 |
| 20260504034553 | 3 | 265 | 25.7 | 56.3 | 0.00 | 4.98 | 0.00 | 88 | 994.7 |
| 20260504033102 | 2 | 242 | 29.0 | 49.9 | 0.00 | 4.98 | 0.00 | 88 | 994.3 |
| 20260504031553 | 2 | 249 | 22.5 | 46.7 | 0.03 | 4.98 | 0.00 | 88 | 994.2 |
| 20260504030056 | 2 | 288 | 20.9 | 45.1 | 0.03 | 4.98 | 0.00 | 88 | 993.6 |
| 20260504024616 | 2 | 290 | 25.7 | 43.5 | 0.00 | 4.98 | 4.98 | 88 | 993.3 |
| 20260504023053 | 2 | 278 | 22.5 | 46.7 | 0.00 | 4.98 | 4.98 | 88 | 993.0 |
| 20260504021554 | 2 | 246 | 24.1 | 45.1 | 0.00 | 4.95 | 4.95 | 88 | 992.4 |
| 20260504020057 | 2 | 261 | 22.5 | 48.3 | 0.00 | 4.95 | 4.95 | 88 | 991.9 |
| 20260504014604 | 2 | 275 | 19.3 | 45.1 | 0.05 | 4.95 | 4.95 | 88 | 991.7 |
| 20260504013056 | 2 | 259 | 24.1 | 41.8 | 0.13 | 4.95 | 4.95 | 89 | 991.1 |